Wind_Speed
16 17 17 17 16 16 16 17 17 17 18 18 19 19 19 19 19 20 20 20 21 21 22 23 22 21 21 21 20 20 20 20 19 21 23 14 12 14 13 13 11 12 17 16 15 21 23 22 22 21 18 16 13 12 13 11 9 7 5 5 4 3 0 3 4 4 3 5 6 3 6 5 7 9 8 8 8 9 12 9 8 8 5 7 16 26 32 32
17 17 18 18 17 17 17 17 17 17 18 18 19 19 19 20 20 20 20 20 21 21 22 22 22 21 21 21 19 20 20 21 21 25 24 15 16 19 15 15 16 14 15 20 20 22 25 24 23 22 19 15 12 12 13 12 11 9 5 4 5 1 3 3 3 4 3 5 6 2 4 5 5 9 10 8 9 11 12 10 11 11 10 13 21 29 32 32
18 18 18 19 18 18 18 18 19 18 19 19 20 20 20 20 21 21 21 21 21 21 22 21 21 20 21 20 18 19 19 20 22 24 23 19 18 19 19 18 18 18 16 18 20 21 22 23 24 22 18 14 12 13 12 11 12 10 7 5 4 1 2 2 2 0 3 4 4 2 2 5 5 8 9 7 7 11 10 11 14 14 16 19 25 30 31 32
19 19 19 19 19 19 19 19 20 20 21 21 21 21 20 21 21 22 22 22 21 21 22 21 21 20 19 19 17 16 15 18 17 16 15 12 9 7 12 18 20 20 18 16 17 20 19 21 24 21 17 12 12 13 11 12 11 9 9 7 2 1 3 5 4 2 1 3 5 2 2 4 5 7 9 6 5 8 9 12 15 17 21 24 27 31 32 32
19 20 20 20 20 20 20 21 21 21 22 23 23 22 22 22 22 22 22 22 22 21 22 22 21 20 19 18 16 12 9 8 5 7 8 7 9 6 3 10 18 19 19 18 17 19 19 21 23 20 16 11 11 12 12 16 12 7 9 10 6 3 3 4 4 2 1 3 4 2 3 3 6 8 10 9 5 3 4 10 14 17 24 27 31 32 32 32
20 20 20 21 21 21 21 22 22 22 23 23 24 23 23 23 23 23 22 21 21 22 21 21 21 19 18 16 15 10 6 6 2 6 9 12 9 4 4 2 13 19 20 20 18 19 21 23 23 20 16 12 12 12 12 18 15 8 9 11 11 9 7 3 3 3 3 5 5 4 4 4 8 8 10 12 9 1 3 8 12 17 23 27 31 33 32 33
20 20 20 20 21 21 21 22 22 23 23 24 24 24 24 24 24 24 23 21 21 21 20 21 21 19 17 15 14 10 12 17 9 6 9 11 5 5 4 2 9 21 23 21 21 22 23 24 24 20 15 11 13 14 11 15 17 11 9 10 10 10 10 8 7 7 8 8 8 7 7 8 10 8 8 12 13 5 3 9 14 18 23 25 29 31 32 33
20 21 21 21 21 21 21 21 22 23 23 24 24 24 24 24 25 24 22 21 20 21 19 19 20 18 17 14 11 10 17 25 19 14 14 13 14 13 8 5 10 21 25 24 24 25 25 25 25 20 14 11 11 13 11 11 15 15 12 10 9 10 10 10 10 11 11 11 10 10 10 10 10 9 8 11 12 8 7 12 18 21 24 26 28 30 30 30
22 22 22 23 23 22 22 22 22 23 23 24 24 24 24 24 24 23 22 21 20 19 18 17 18 17 16 13 9 10 18 22 19 19 20 18 19 18 14 11 14 22 25 26 26 26 26 25 26 21 13 12 10 11 13 10 9 13 16 12 10 11 11 11 13 13 12 11 10 10 12 11 11 11 10 12 13 11 12 16 20 24 25 25 27 29 29 29
24 24 24 24 24 24 24 23 23 24 24 24 24 23 24 24 23 23 21 20 18 18 16 16 16 16 16 13 9 10 14 14 9 10 16 19 19 19 19 14 15 23 25 26 27 28 27 23 26 21 10 11 11 9 14 12 5 5 11 13 13 14 13 13 14 14 12 11 11 11 11 10 10 10 8 9 15 16 17 19 21 24 25 25 26 28 29 29
26 26 26 26 26 26 25 24 24 24 24 24 24 23 23 23 23 22 20 18 17 15 14 14 14 15 16 14 13 11 12 13 8 6 8 14 16 14 15 15 16 23 26 26 27 29 27 23 23 18 8 9 11 10 13 14 9 7 7 10 13 14 14 15 15 15 12 9 11 12 11 11 9 12 10 8 18 20 19 21 22 23 24 25 25 27 27 27
27 27 28 28 28 28 27 26 25 24 24 24 23 23 22 22 22 21 19 17 16 13 12 12 12 15 14 16 22 21 16 15 11 8 6 9 11 11 14 15 17 23 25 26 28 28 27 22 21 20 9 6 10 8 9 13 12 11 10 10 12 12 13 14 15 14 11 9 9 9 10 10 11 15 14 11 20 21 20 22 23 23 23 24 25 26 26 26
28 29 30 30 30 30 30 29 27 25 24 24 23 23 22 21 20 19 17 16 14 12 10 9 11 14 13 14 19 18 18 18 11 7 8 11 13 12 13 14 17 20 21 23 25 26 24 20 21 22 13 7 9 5 2 9 12 11 10 9 10 9 11 14 15 14 12 10 8 7 7 8 12 16 13 15 22 21 20 22 23 23 23 23 25 25 25 26
30 30 31 32 32 32 32 31 29 27 25 24 24 22 20 19 19 19 17 15 13 11 9 8 10 11 13 16 14 11 14 20 19 14 12 10 9 8 10 14 17 17 17 18 19 22 21 17 19 20 16 11 8 4 3 7 8 9 10 9 8 8 9 11 10 10 11 7 9 10 8 6 7 12 13 18 23 22 22 22 23 24 23 24 25 24 25 27
29 31 32 33 33 33 34 33 32 28 25 24 23 21 19 17 18 18 17 16 14 12 8 6 7 9 11 17 16 13 13 18 22 23 19 14 11 7 7 13 16 15 15 13 13 18 18 16 19 18 16 14 8 6 8 7 6 7 8 8 9 8 8 9 9 9 10 6 9 11 8 7 3 10 16 19 21 22 21 22 23 24 24 24 25 24 25 26
28 29 31 32 33 33 34 34 33 29 25 23 22 19 18 18 17 18 19 16 14 11 6 5 6 10 7 10 12 13 14 18 21 23 24 20 15 10 7 11 14 15 15 11 9 14 15 15 18 17 15 13 10 8 7 8 8 8 8 9 10 11 10 9 9 10 12 6 9 11 9 7 2 10 15 17 19 21 19 21 24 24 25 25 25 25 24 25
28 28 30 31 31 33 34 34 33 30 25 22 20 18 18 19 16 17 18 15 14 10 5 3 4 8 9 7 9 11 13 17 17 18 24 25 20 13 9 12 13 15 16 11 8 13 15 16 15 14 13 11 10 10 9 10 10 8 9 9 11 11 10 9 7 8 10 9 10 12 11 10 2 8 12 15 18 20 18 20 24 24 24 25 24 25 25 26
28 28 29 30 31 32 32 33 33 30 26 21 18 19 18 17 15 16 16 14 12 8 5 4 6 4 10 12 9 5 8 12 13 14 17 23 23 17 14 14 14 17 17 12 11 14 16 16 13 9 11 11 11 12 12 12 12 11 10 9 10 10 9 10 7 6 7 9 10 11 11 11 8 7 11 13 16 18 18 18 21 23 24 24 24 24 25 26
28 28 29 30 30 31 31 33 31 28 26 21 19 18 15 14 14 11 8 7 6 6 5 7 13 5 3 8 9 4 6 9 10 12 14 19 22 20 17 14 16 21 18 12 13 17 15 13 12 10 11 13 15 15 14 12 11 13 13 10 11 11 10 13 8 4 4 7 9 11 11 11 10 8 10 13 15 17 17 17 19 21 23 23 24 24 25 26
28 28 29 29 30 30 31 32 28 26 26 23 20 15 11 14 11 3 6 13 16 18 17 12 19 17 8 2 5 5 8 9 9 12 15 18 22 23 19 16 19 20 16 12 13 17 16 11 12 13 14 16 18 18 16 14 10 10 12 11 13 13 10 12 9 5 4 7 9 11 12 11 10 8 9 13 15 16 16 17 19 21 23 24 25 25 26 26
29 29 29 29 29 28 29 29 25 25 25 20 19 12 8 12 8 5 15 22 19 18 26 25 22 26 22 11 3 3 6 8 9 12 14 18 24 23 21 21 18 14 15 16 14 15 15 13 14 17 17 16 17 18 17 16 13 10 11 10 12 13 11 12 9 6 5 7 9 10 12 12 11 10 8 13 14 15 17 19 20 22 23 23 25 25 25 24
29 29 29 29 29 27 28 25 21 24 20 15 17 13 9 12 10 9 12 17 22 20 23 28 25 28 30 24 17 10 6 9 11 14 15 20 26 23 21 22 16 12 16 17 13 13 13 14 17 18 16 15 15 17 18 18 15 11 10 10 11 12 11 12 10 8 7 6 9 11 12 12 12 10 8 12 14 14 18 20 21 23 23 23 24 25 25 24
29 30 29 29 28 27 27 21 18 22 17 13 16 15 14 17 14 10 7 12 24 25 22 25 25 27 28 26 26 21 15 15 14 17 19 22 26 26 22 20 17 15 17 18 15 13 12 13 18 18 16 17 16 15 17 16 13 12 11 11 12 12 11 11 10 11 9 8 10 12 11 11 11 10 9 13 16 15 17 20 20 22 24 25 25 25 25 26
29 29 28 29 28 27 26 19 17 22 15 11 14 16 19 21 16 11 7 11 15 17 18 20 18 22 22 18 19 23 23 21 16 18 22 24 26 25 21 21 20 16 17 22 21 17 13 9 14 20 18 18 18 16 17 14 11 14 16 14 13 13 14 11 6 7 7 9 11 11 10 10 12 14 12 13 16 16 16 18 19 21 23 22 22 23 25 27
29 28 28 28 27 27 24 15 16 22 14 6 12 18 20 22 18 10 6 8 9 9 9 10 10 12 13 12 14 19 19 21 23 21 22 27 27 21 19 21 19 16 20 25 21 17 16 9 11 19 20 19 19 16 17 15 10 13 18 19 16 13 14 13 8 6 6 8 10 10 10 9 12 16 15 11 13 15 15 17 19 20 20 20 21 23 25 27
29 27 27 27 25 27 21 10 15 22 12 4 14 21 21 21 18 7 2 6 6 5 4 6 6 4 7 11 15 16 11 17 25 25 22 26 28 20 15 17 15 17 21 20 14 10 13 13 12 17 19 20 20 17 18 17 11 11 13 17 19 17 15 13 11 9 9 9 9 9 10 9 9 13 12 10 12 14 15 15 18 21 21 22 23 24 25 27
29 26 26 25 23 25 20 14 20 20 11 11 19 22 22 21 14 4 2 6 4 4 7 4 3 5 5 8 17 15 4 5 16 24 25 26 28 23 16 15 14 16 16 13 11 10 13 17 15 17 18 17 17 15 16 18 13 10 10 11 17 19 18 15 12 10 9 10 9 9 9 10 10 11 9 9 12 13 14 15 16 20 23 23 24 25 26 28
28 25 25 24 21 19 18 19 21 17 13 18 21 21 22 20 10 2 4 5 2 5 6 4 4 4 2 6 18 16 3 6 8 20 28 28 28 24 17 17 17 17 18 14 12 12 15 20 18 19 18 13 14 14 16 18 14 11 7 7 11 16 17 15 12 10 10 10 11 11 12 10 10 11 10 11 13 13 14 16 16 19 23 23 24 25 26 27
28 25 24 24 20 17 16 17 18 18 20 22 21 22 22 16 6 3 5 5 3 5 3 4 4 3 3 6 16 17 7 2 1 10 24 27 28 23 15 18 18 17 21 18 13 12 13 18 19 17 15 12 13 14 17 18 15 12 8 5 9 11 13 13 10 10 10 11 13 14 14 11 10 11 11 12 14 14 13 14 15 19 22 23 24 25 26 27
27 24 23 22 20 17 17 16 14 19 23 22 20 21 16 6 3 5 7 4 2 3 2 3 3 1 1 2 9 15 13 9 1 7 18 22 27 25 15 17 18 14 17 17 16 15 10 13 18 15 14 14 12 13 16 18 16 13 9 8 9 9 9 10 9 8 10 12 15 16 16 13 12 11 11 11 12 13 13 12 13 17 22 24 24 25 26 27
28 25 21 20 17 15 17 15 14 20 23 20 20 18 7 4 5 7 6 0 3 4 3 3 4 4 4 6 4 10 12 12 6 8 13 14 20 22 14 14 15 11 13 14 16 18 13 11 13 15 18 17 12 12 13 15 17 13 9 9 8 7 7 7 7 8 11 12 12 15 18 16 14 12 10 12 15 16 14 13 13 15 20 24 24 25 26 27
29 25 21 17 13 11 15 18 20 23 22 20 21 14 6 6 7 9 5 3 2 4 6 6 8 9 9 11 7 7 9 10 10 10 11 12 14 17 15 13 12 12 13 12 13 16 16 12 11 15 20 20 14 11 11 12 15 13 10 10 9 7 7 8 9 10 11 11 9 11 15 15 16 14 11 12 14 15 14 14 15 15 19 24 25 25 25 27
29 25 20 14 9 10 15 19 22 24 22 20 18 11 7 7 7 6 5 3 3 7 9 10 13 13 13 11 5 5 7 8 11 12 12 14 13 15 19 18 17 14 11 11 13 13 13 13 15 16 16 20 18 12 10 11 13 14 12 11 10 8 9 10 10 9 9 10 10 11 11 12 14 12 14 17 15 13 13 15 16 16 17 21 24 25 25 26
26 22 17 10 8 13 18 20 20 21 22 19 14 9 8 9 7 4 4 4 8 10 10 12 15 14 12 8 1 1 5 7 10 12 12 13 13 13 16 19 22 17 9 10 12 12 14 12 17 18 12 17 22 15 12 11 11 14 12 11 11 9 8 8 8 9 9 8 11 12 9 10 9 4 7 15 17 17 17 16 16 17 17 19 21 23 23 25
24 20 13 8 9 16 20 19 17 17 18 16 10 7 8 9 7 5 4 7 10 10 14 16 14 12 9 6 1 3 2 3 7 11 11 12 12 12 14 17 21 18 11 10 9 11 16 11 12 20 15 16 21 18 15 12 10 12 12 11 12 10 8 6 6 6 6 6 9 11 8 7 5 1 1 6 12 17 19 19 20 20 21 21 20 22 23 25
24 18 9 7 13 19 19 17 15 14 14 12 8 7 6 4 4 5 7 10 10 11 16 15 8 7 6 4 4 3 5 3 4 7 9 12 11 10 13 12 15 20 16 11 8 9 13 10 11 20 19 17 20 20 18 15 9 9 12 13 11 11 10 8 7 4 5 7 7 8 9 8 6 6 7 9 10 13 15 16 17 18 20 21 20 21 24 25
24 15 6 9 17 20 18 14 14 13 10 9 7 6 4 4 6 7 9 11 12 12 12 8 4 4 4 2 0 4 7 6 4 5 8 13 7 1 4 2 2 12 13 7 8 9 9 8 11 19 20 19 21 21 20 19 13 8 11 13 10 10 10 8 7 6 7 9 7 9 13 11 9 8 10 15 16 15 15 15 15 16 17 18 19 21 24 25
23 13 5 11 20 21 15 11 11 10 9 7 7 6 3 4 7 9 10 12 11 10 9 7 4 4 4 5 5 7 9 6 1 3 7 10 4 5 4 2 4 2 4 5 5 8 8 7 10 17 19 18 19 18 16 20 21 12 8 11 11 10 10 8 7 8 9 9 8 11 14 11 10 8 6 14 18 17 17 16 16 16 16 18 20 21 23 24
22 12 3 14 24 18 11 9 9 10 9 5 6 4 3 6 8 11 12 12 10 8 8 9 7 5 5 7 7 8 9 7 5 5 4 3 1 5 8 4 3 7 9 5 5 5 6 7 7 13 18 16 14 14 12 15 19 15 10 10 11 9 8 9 8 7 8 8 7 10 12 9 9 10 10 11 13 14 15 15 15 16 17 19 21 21 23 24
19 9 4 19 25 13 8 9 9 8 6 3 4 5 7 8 9 11 12 11 9 7 8 9 9 8 8 9 9 7 7 7 7 6 3 2 1 5 10 9 7 10 10 5 8 6 6 7 6 10 16 15 12 12 14 14 15 14 12 12 12 9 7 8 9 8 8 8 7 7 9 6 3 8 13 12 10 11 13 13 13 14 17 20 21 22 22 24
16 7 7 23 23 13 11 10 4 5 4 2 4 6 8 10 10 11 12 10 9 8 9 10 10 10 10 9 9 7 7 7 7 6 4 1 2 4 8 11 10 11 8 5 10 8 6 7 8 8 11 13 12 13 17 17 16 15 12 12 12 11 9 8 9 10 9 8 7 7 8 4 2 3 9 11 11 11 12 13 12 13 17 18 18 20 21 24
14 7 11 22 22 16 15 8 3 5 4 4 6 7 8 10 10 11 11 11 9 8 8 10 10 10 10 9 8 8 8 7 7 6 2 2 5 6 9 13 13 11 7 5 7 3 3 5 9 9 8 10 12 15 18 19 19 17 14 13 13 12 11 9 8 8 9 10 9 8 9 4 3 4 5 8 9 9 12 13 12 14 16 16 16 18 17 19
13 11 13 18 19 17 12 4 5 5 4 7 9 8 8 9 9 10 10 10 8 7 7 8 9 8 8 8 8 9 9 8 8 6 2 2 5 7 10 14 14 11 6 2 1 2 2 6 8 8 8 8 9 12 16 18 19 17 15 15 15 14 14 11 8 6 7 10 9 8 9 4 4 5 4 4 6 8 10 12 12 13 14 14 15 12 9 11
15 13 12 14 16 15 8 4 6 6 5 10 11 9 9 8 8 10 10 9 7 6 7 7 7 8 9 8 9 10 9 6 5 4 3 1 4 8 10 13 13 10 7 6 5 2 4 9 10 8 8 8 8 10 13 17 17 13 13 17 18 18 18 15 11 8 7 11 12 9 8 3 5 6 5 6 8 7 7 9 11 12 12 12 10 6 6 8
14 8 9 14 13 11 8 6 6 6 7 10 11 10 9 7 7 9 11 9 7 7 9 8 9 10 10 10 10 11 10 8 5 3 3 3 2 5 10 12 11 9 10 12 11 6 4 7 10 11 12 12 11 9 9 11 14 12 13 19 21 22 22 16 11 10 9 10 12 10 7 2 6 7 8 8 8 8 7 8 8 10 10 8 5 4 5 7
12 6 9 14 10 7 8 6 6 7 7 8 9 9 9 9 8 9 10 8 6 10 10 7 9 11 9 10 10 10 10 9 8 5 4 5 3 4 9 11 8 10 13 15 12 7 4 4 8 10 9 7 4 1 2 2 10 16 17 19 20 21 23 17 11 11 9 9 11 11 10 6 6 9 9 8 8 7 5 6 7 8 7 4 4 4 5 6
9 5 8 10 7 7 8 7 8 8 7 8 7 7 9 10 9 9 9 7 8 12 9 2 7 10 9 11 10 8 8 8 10 9 7 6 6 6 8 7 5 10 12 12 10 7 4 5 7 9 8 5 4 4 5 4 6 13 17 21 20 20 22 21 16 13 10 9 10 11 13 13 9 8 8 8 7 5 5 6 6 4 3 1 2 4 5 6
7 7 9 7 6 7 7 8 11 11 10 9 6 6 9 10 10 9 8 8 10 11 6 1 6 10 10 11 10 7 7 7 8 8 6 6 7 7 6 3 2 8 10 8 8 6 5 4 4 6 9 7 6 7 5 4 4 6 10 16 19 21 23 22 20 18 15 12 9 8 13 16 14 11 9 7 6 6 7 7 5 3 2 2 2 3 5 7
7 7 8 8 8 10 10 11 13 12 10 8 5 5 8 10 10 9 8 8 9 8 5 5 8 11 9 9 9 7 7 6 6 5 7 9 9 7 6 4 1 6 9 7 6 6 5 2 1 4 9 8 7 8 7 6 6 7 9 12 14 18 22 22 21 21 21 17 13 12 13 14 13 13 12 10 9 9 8 9 11 10 5 2 3 4 6 5
8 7 8 10 11 12 12 12 11 10 8 6 4 5 8 10 10 9 9 10 9 7 5 6 10 11 9 7 7 8 9 8 8 8 9 10 8 5 5 4 2 7 10 7 5 6 5 1 3 6 8 7 9 9 9 9 9 9 11 13 14 16 18 18 19 19 20 19 19 18 16 13 11 11 13 14 15 15 13 13 16 18 16 12 10 10 9 8
9 9 8 9 9 10 12 10 9 8 5 4 5 6 8 10 10 10 11 9 6 5 6 8 11 11 9 7 7 9 10 11 11 11 11 10 10 9 7 7 7 9 9 7 6 6 6 4 3 5 6 7 8 9 10 10 10 13 15 16 17 17 17 15 15 16 16 17 19 19 16 11 9 10 13 14 15 15 14 14 17 20 23 22 19 15 14 11
10 9 7 7 7 9 10 9 8 8 5 5 7 8 9 11 11 11 9 4 2 5 8 10 12 10 8 8 8 7 9 12 13 14 14 15 16 16 15 14 14 10 7 7 7 5 5 5 4 3 5 5 6 7 8 7 9 14 15 17 18 18 16 16 16 17 17 15 14 13 11 9 9 11 12 13 14 14 13 15 18 19 21 23 23 21 20 17
Wind_Direction
341 338 336 333 331 330 328 326 323 320 316 312 309 306 304 303 301 300 299 298 297 296 294 292 291 291 290 292 293 294 294 291 290 286 274 266 273 268 253 241 236 229 212 195 182 173 167 173 177 175 175 182 197 194 192 203 203 204 227 244 248 244 147 59 53 52 24 43 57 138 184 187 159 162 154 155 169 154 162 165 147 148 127 128 139 147 152 155
345 341 339 336 334 333 332 330 327 323 319 315 310 307 303 300 298 296 296 295 296 296 295 294 292 291 290 291 295 297 296 295 294 282 269 265 269 262 252 235 225 223 196 185 187 176 170 175 174 173 178 182 190 186 186 195 197 209 231 243 247 262 81 68 39 50 26 21 32 73 190 212 182 166 170 176 174 164 166 165 160 151 132 131 141 149 153 157
345 343 340 337 336 334 333 332 329 325 321 318 314 311 307 302 299 295 293 293 293 294 295 295 294 293 291 291 295 298 301 304 298 281 272 273 266 253 243 230 219 216 199 190 192 182 176 176 172 174 182 187 188 183 186 192 196 215 233 245 251 276 122 158 226 348 18 1 5 42 170 221 194 168 183 193 177 176 184 173 168 163 148 145 150 154 156 160
344 342 339 336 335 333 332 331 328 325 321 319 316 313 310 306 302 297 295 292 291 291 291 293 294 294 293 293 294 299 312 309 290 269 268 264 241 229 225 216 211 211 199 190 188 184 181 176 174 178 187 196 193 191 196 191 192 208 220 245 277 353 220 183 191 217 335 342 346 8 178 217 193 185 199 201 184 193 207 191 180 171 158 154 156 159 161 163
342 339 337 334 332 331 331 329 327 324 320 318 316 314 312 308 305 301 298 294 291 288 289 290 290 292 294 294 293 299 315 307 265 222 219 168 146 115 133 196 202 203 190 184 184 183 182 177 178 184 195 202 190 195 207 200 205 220 220 244 257 257 229 158 165 203 230 304 328 305 239 223 187 202 214 205 204 195 195 194 187 176 164 160 162 163 165 168
340 337 334 332 331 330 329 327 325 321 318 316 315 313 311 308 306 303 302 299 294 288 286 287 287 288 292 294 292 288 267 262 127 151 179 154 146 103 46 154 186 189 184 184 185 182 182 178 181 189 200 207 195 199 209 202 212 238 229 236 242 247 245 210 213 220 233 275 296 286 269 232 199 215 221 211 219 207 120 178 178 173 168 164 164 166 169 171
341 339 336 334 332 331 330 327 324 320 317 315 313 312 310 308 306 305 306 304 298 290 286 285 285 285 288 291 289 274 245 250 239 199 196 178 205 295 311 291 179 181 181 185 185 182 182 182 187 194 200 209 205 206 206 200 211 234 245 239 238 243 246 246 250 244 251 269 276 274 270 238 216 226 222 213 221 222 145 161 162 164 165 164 166 171 174 174
343 341 338 337 336 334 333 329 325 320 317 315 313 311 308 307 306 307 308 305 300 293 287 282 282 282 282 282 281 268 245 248 246 238 234 229 254 278 272 245 192 181 182 187 185 183 185 187 192 194 203 211 206 205 196 198 214 227 244 248 246 250 251 253 255 255 257 263 265 261 258 242 227 238 237 219 214 203 170 153 154 159 162 167 171 174 176 176
343 341 339 338 337 336 334 331 327 323 321 318 315 311 308 307 307 309 307 304 301 295 290 282 280 278 275 269 262 261 254 256 262 253 246 247 253 257 258 247 203 184 185 190 186 187 188 191 196 194 208 211 202 204 196 203 217 221 235 246 254 257 259 260 257 258 258 258 257 252 251 245 235 241 245 227 208 185 164 154 153 159 164 169 173 176 178 179
343 341 339 338 337 336 334 331 328 325 324 322 319 314 309 308 310 310 307 305 301 295 290 281 276 271 265 258 239 253 261 258 273 267 247 241 242 245 248 244 210 188 186 190 189 191 191 196 198 196 220 217 202 205 200 212 230 212 235 249 256 262 264 262 259 258 258 257 249 247 254 255 238 226 236 217 191 173 160 156 158 162 167 171 174 177 179 181
343 341 340 339 337 335 334 330 327 325 324 324 323 318 311 310 313 311 308 307 302 297 291 280 272 262 256 243 226 237 255 247 255 293 261 224 226 234 222 216 206 192 187 189 192 193 195 200 196 193 217 214 200 209 210 219 239 248 256 261 256 259 259 254 256 254 251 253 244 245 256 259 234 214 229 202 170 169 166 161 163 167 169 172 175 177 180 183
345 344 342 341 339 337 335 331 328 325 324 323 324 322 314 313 314 311 310 308 306 305 292 278 265 254 247 238 236 238 244 254 257 260 235 174 177 187 190 199 200 192 189 190 193 194 197 200 194 193 201 195 194 210 218 216 232 251 255 266 261 256 255 246 247 247 240 245 239 240 254 249 220 215 225 189 167 172 172 166 166 170 171 173 175 177 180 183
347 346 345 344 342 342 339 334 330 327 325 323 324 324 317 317 316 310 309 309 309 311 300 282 262 247 231 235 250 249 241 248 246 215 187 150 144 158 172 184 189 193 195 194 195 193 195 195 193 201 208 207 201 191 194 203 219 242 240 254 263 255 250 238 237 238 235 242 230 224 256 242 205 210 209 174 172 176 174 172 170 171 171 173 176 178 181 183
347 346 346 344 343 345 343 339 335 330 326 324 325 324 320 319 314 307 307 307 307 312 309 287 259 232 220 236 257 257 233 234 233 218 202 181 161 149 153 168 181 191 196 199 200 193 193 192 195 209 217 222 222 195 200 200 206 230 231 235 248 250 239 220 217 227 226 218 207 216 254 260 185 181 180 170 176 179 176 176 174 172 172 174 177 179 183 184
347 346 345 343 343 345 345 342 339 334 329 327 328 325 320 319 312 306 303 301 307 311 314 300 246 205 229 256 258 254 234 225 226 219 215 215 206 184 153 165 177 182 182 187 194 191 194 195 200 213 214 217 233 217 214 214 203 216 224 223 224 236 239 209 184 212 225 185 188 213 245 258 163 148 166 172 182 184 181 179 176 176 174 174 178 180 183 186
346 345 343 342 341 345 345 342 341 338 331 330 330 325 319 318 312 304 299 298 305 312 325 320 233 201 245 273 254 248 232 223 225 217 216 218 211 199 171 165 172 179 180 176 179 186 191 195 202 213 210 207 217 218 218 220 214 210 220 231 221 218 230 217 183 207 231 213 198 215 247 264 148 141 167 174 186 191 187 183 179 179 177 175 178 180 183 185
347 344 343 341 340 344 344 341 342 340 335 333 331 329 323 319 314 302 296 294 300 307 315 315 207 215 246 248 241 243 223 220 225 216 216 217 212 202 177 170 173 177 180 178 183 184 187 195 200 209 213 211 208 211 219 219 212 203 209 231 233 222 224 219 184 184 217 226 221 221 241 261 218 154 174 179 188 195 196 189 182 180 180 178 179 181 183 184
348 345 343 340 340 345 344 342 343 340 338 337 333 334 329 322 317 303 293 297 304 298 277 212 162 223 242 217 219 222 198 207 210 205 210 213 212 204 188 183 176 171 174 180 188 184 184 192 197 201 210 213 207 204 212 215 210 208 207 216 230 226 228 230 204 160 189 218 230 229 234 246 235 189 182 186 191 200 203 195 187 184 182 181 181 183 184 186
349 346 343 340 341 345 345 344 345 344 342 341 342 342 341 336 321 302 292 299 280 250 263 185 181 229 300 199 206 199 178 185 192 194 196 201 200 194 193 189 175 171 174 182 188 187 184 188 198 208 207 205 207 209 214 218 218 222 218 214 224 223 227 234 222 168 198 230 236 241 246 248 243 212 186 190 195 202 206 198 193 189 185 184 185 186 186 188
349 347 344 342 342 345 347 345 347 349 347 348 353 356 1 351 329 302 320 294 260 248 267 248 217 243 285 208 206 219 206 198 200 197 190 190 182 179 185 180 173 178 184 185 184 186 190 199 206 209 210 205 207 213 218 223 229 235 226 218 228 231 227 228 218 184 211 249 244 246 259 260 258 245 202 192 196 201 205 200 197 194 190 189 190 190 188 189
349 347 345 343 343 346 348 346 348 352 354 1 10 25 36 4 344 325 324 304 280 257 260 259 243 243 249 242 210 184 203 214 213 197 187 183 175 174 179 176 177 188 193 190 182 183 195 214 215 208 211 209 207 211 217 222 221 226 228 223 229 233 234 234 223 186 195 245 252 252 265 262 258 262 224 194 198 202 203 202 200 198 195 194 194 193 190 187
349 346 345 344 344 346 348 347 348 355 5 21 21 37 38 359 345 329 319 300 294 282 262 261 252 243 245 242 237 234 238 236 214 195 184 178 178 179 177 180 189 191 190 192 185 185 203 222 217 207 208 212 211 210 212 219 219 222 230 231 234 231 233 238 227 207 213 242 254 254 262 263 259 261 233 201 203 206 207 207 203 199 198 197 197 194 190 185
350 347 345 345 343 346 349 345 350 358 9 28 18 18 7 349 345 337 303 279 292 288 264 252 243 239 240 238 236 231 233 237 218 199 189 180 186 188 179 183 197 192 188 197 195 191 206 220 215 208 207 211 212 205 206 214 219 225 228 228 234 230 228 234 217 209 225 238 254 261 264 265 260 251 233 212 207 206 210 212 209 205 202 201 199 195 191 187
351 347 345 345 343 345 348 344 354 1 4 24 17 0 350 343 343 340 295 264 283 286 264 242 232 239 234 225 228 218 219 229 222 207 193 184 190 192 188 190 195 197 197 200 202 206 213 210 205 207 207 207 206 201 205 213 220 224 227 229 232 229 229 238 216 196 222 230 237 255 264 262 252 244 236 215 203 203 207 210 211 212 209 206 202 197 194 191
351 348 345 346 344 344 351 353 354 0 4 21 3 343 341 340 337 336 296 265 262 266 256 219 218 241 220 199 206 202 211 227 222 212 195 190 193 190 193 197 197 204 203 201 206 216 222 204 189 204 204 201 206 209 210 213 222 224 224 229 235 237 234 237 233 222 237 232 220 231 251 256 242 241 240 215 195 198 199 204 209 210 209 206 203 200 198 196
352 349 345 346 344 343 355 2 343 355 9 348 339 337 337 337 335 335 273 273 257 214 164 175 195 184 167 179 186 185 210 230 219 212 200 196 198 194 194 195 201 211 203 201 209 221 225 206 186 200 199 199 212 219 212 209 223 229 220 223 229 237 239 234 231 232 244 250 234 225 243 261 247 239 237 210 195 198 196 202 206 204 205 204 203 202 199 197
354 350 343 346 346 342 349 345 338 354 2 326 332 336 334 332 334 344 250 262 249 155 124 134 144 120 142 178 176 177 185 191 195 201 200 196 197 202 209 196 198 211 199 197 214 214 215 205 188 195 199 203 215 219 209 206 219 230 219 218 221 224 231 232 231 236 248 259 250 224 229 259 258 243 234 209 201 199 197 202 204 202 205 206 204 203 200 198
354 350 344 344 344 340 338 333 336 346 343 334 336 333 330 330 323 278 262 270 205 119 111 121 104 88 96 172 182 190 142 93 168 192 193 194 195 201 217 209 200 205 198 201 213 201 202 205 194 194 201 207 215 215 204 202 217 227 214 218 221 219 225 229 235 243 248 254 248 226 223 246 255 243 237 224 215 209 201 201 204 203 205 207 206 206 203 201
354 350 344 342 342 337 330 334 338 334 337 340 334 328 328 325 305 217 251 269 149 113 89 128 122 88 99 162 199 218 242 256 230 175 184 194 197 200 219 217 208 207 206 212 220 204 199 210 205 197 203 212 212 211 204 202 214 220 201 204 219 218 223 228 235 242 242 246 245 233 226 238 253 243 231 224 219 218 214 206 204 203 203 205 208 208 206 203
354 350 343 340 340 334 331 341 338 325 332 336 329 330 329 300 236 218 230 241 107 67 34 108 99 15 175 173 210 221 233 238 211 148 183 192 196 203 219 219 215 217 213 214 223 222 208 207 211 206 210 218 211 208 209 207 211 212 200 203 213 211 219 226 229 235 241 242 239 233 229 237 255 248 228 223 218 218 225 219 205 200 200 204 207 209 207 204
354 349 343 340 334 328 330 333 324 321 330 334 331 331 312 219 236 236 220 270 22 11 15 52 20 336 313 318 255 203 211 224 208 166 181 184 189 199 206 208 213 217 213 210 219 225 212 197 208 211 213 217 213 211 210 204 207 209 202 203 211 206 210 220 216 218 234 239 233 228 228 233 247 246 230 228 223 218 225 224 209 197 196 201 205 208 208 205
354 348 343 340 326 320 325 323 323 326 330 334 331 318 257 228 237 227 240 323 341 6 8 356 341 333 321 311 278 218 213 218 206 187 185 187 187 193 197 196 192 196 208 206 205 214 214 207 203 204 209 209 208 208 200 194 203 206 202 204 208 198 194 207 209 212 230 237 231 227 225 228 241 246 240 238 231 222 225 228 221 207 199 198 202 206 207 205
353 347 341 339 322 318 322 322 324 323 326 333 324 295 247 247 240 230 272 313 17 4 347 332 322 317 305 292 261 221 230 211 194 193 193 194 194 196 203 205 198 200 210 201 196 205 210 211 204 201 203 202 204 205 192 190 199 200 200 201 202 196 194 206 210 216 232 233 222 222 225 233 244 249 239 234 234 228 223 223 223 218 208 202 201 204 204 204
352 348 341 334 328 330 327 326 325 318 322 328 311 274 244 244 248 274 304 353 3 342 330 327 317 306 287 267 290 355 241 210 193 198 194 194 201 199 201 207 207 210 217 205 201 201 205 209 203 198 191 190 200 208 201 192 194 199 203 207 210 211 209 210 211 218 231 227 205 200 211 231 236 244 237 227 221 219 220 219 222 225 220 212 205 204 204 204
355 354 345 336 336 335 333 331 327 318 318 316 295 260 249 248 258 292 337 358 349 339 333 322 302 288 270 232 171 24 315 198 192 205 202 197 204 203 199 204 206 209 215 213 204 201 213 220 193 192 193 187 194 205 206 197 193 196 201 210 215 215 220 232 240 241 251 241 205 195 210 233 227 168 156 214 207 208 218 224 225 226 224 218 208 203 203 204
360 360 353 349 342 337 339 338 331 322 312 301 275 252 259 280 333 347 359 354 340 336 330 316 288 272 264 209 146 70 5 332 216 210 211 203 204 206 200 199 205 209 212 215 209 199 215 220 177 183 196 194 192 197 200 202 197 186 198 212 212 209 222 237 244 257 271 251 217 201 221 233 245 245 215 205 203 199 208 215 216 219 219 215 208 203 203 204
4 5 2 356 346 342 341 339 336 325 299 275 265 273 301 359 15 359 351 346 332 323 318 310 321 321 295 281 39 22 347 314 233 221 214 196 190 245 221 201 222 216 218 237 232 208 213 215 172 178 193 193 191 193 198 205 207 191 197 204 198 206 225 238 237 225 224 237 227 217 228 227 231 241 211 204 209 205 206 210 211 213 212 210 208 205 205 205
3 358 358 358 348 342 341 342 341 317 281 264 260 267 307 340 353 346 341 340 327 312 300 281 298 334 325 312 331 351 333 311 319 277 220 188 166 16 347 336 20 337 310 319 250 209 213 214 172 177 191 185 184 194 199 203 210 217 210 194 189 203 211 211 228 226 219 232 235 227 233 231 225 230 208 204 209 209 210 211 213 213 209 208 208 208 208 207
358 344 358 356 346 345 352 349 330 296 270 270 267 265 325 335 336 334 334 334 321 305 290 276 279 294 305 311 321 334 319 310 333 307 249 188 160 36 22 348 334 350 346 313 244 210 209 220 184 178 189 180 178 199 203 193 202 218 222 203 199 210 210 203 212 225 226 234 236 229 231 231 228 228 223 211 206 208 209 206 212 218 214 211 211 211 208 205
348 336 1 349 345 355 357 329 310 295 281 290 301 314 334 333 328 327 331 331 315 299 287 286 292 285 290 309 308 310 311 304 310 296 282 13 77 77 34 6 339 337 336 278 237 232 214 224 209 173 182 186 187 200 204 192 190 203 211 206 201 201 212 216 212 216 228 236 239 238 235 233 217 217 220 216 204 204 207 206 209 217 219 217 217 218 209 200
336 328 348 346 349 1 339 316 320 335 317 319 332 328 327 323 320 321 328 328 311 295 287 286 289 284 282 296 298 301 308 295 289 284 269 322 49 68 30 6 345 327 320 237 216 226 225 223 218 189 181 195 199 196 202 202 194 196 204 204 201 199 204 212 210 209 221 234 237 245 252 255 84 162 209 211 207 207 212 217 215 214 220 220 221 222 212 201
338 335 340 345 353 352 328 314 19 359 333 349 336 319 317 314 313 319 328 332 319 301 290 279 277 280 276 280 293 300 304 297 285 279 270 37 29 32 16 359 343 325 306 226 200 225 287 238 219 210 195 202 206 195 199 208 202 200 207 204 200 203 206 210 208 199 208 227 236 247 259 269 91 128 179 190 204 215 218 222 223 219 220 219 222 226 216 204
343 328 330 344 352 348 331 328 15 354 352 358 333 313 316 312 315 324 328 334 330 315 306 289 282 289 283 285 294 285 285 291 281 275 289 50 39 28 9 358 348 338 332 285 168 61 283 231 216 220 209 205 211 194 195 208 208 206 210 208 206 208 208 214 222 211 210 220 220 231 246 234 132 148 170 179 203 217 218 219 224 226 222 219 225 227 205 192
335 320 329 350 358 359 1 10 359 349 355 349 332 323 327 320 324 330 328 336 340 326 315 300 298 306 299 297 290 276 279 281 261 262 277 304 38 25 6 3 356 354 13 3 346 350 235 215 207 218 210 195 198 192 195 207 212 215 213 208 210 212 209 214 225 230 229 221 215 221 237 211 133 158 190 199 205 211 213 215 219 225 227 227 228 208 175 194
336 332 347 353 359 16 33 26 356 347 351 343 333 331 331 325 335 338 330 330 332 325 318 311 317 315 300 294 282 265 266 266 258 271 271 274 358 17 359 357 357 1 7 351 333 312 260 221 208 211 209 202 198 193 196 204 206 214 218 211 209 210 210 213 219 222 222 220 219 225 231 170 127 164 186 186 197 209 213 215 216 220 226 229 214 164 176 225
339 342 354 347 347 11 24 17 357 347 346 339 332 333 332 328 338 343 336 332 335 330 323 327 343 333 314 312 298 266 252 252 261 276 272 276 301 346 345 341 355 3 350 340 332 309 268 235 226 232 234 230 221 202 353 276 211 206 210 213 210 209 210 212 218 221 215 218 225 226 229 213 164 168 178 179 188 197 201 217 218 214 219 209 184 193 213 237
344 343 352 343 333 347 356 355 353 349 338 330 325 323 324 325 334 342 341 340 340 334 322 342 23 6 351 341 321 282 266 258 255 263 267 284 304 315 320 318 354 1 340 334 342 324 264 219 223 248 265 277 303 321 339 330 237 211 208 211 211 210 211 214 220 221 210 218 228 216 216 224 208 177 177 188 199 203 214 237 238 232 252 252 194 214 225 219
354 342 346 341 320 328 339 339 337 332 323 322 318 310 315 325 336 341 342 333 330 336 331 322 18 11 359 344 326 300 297 277 253 260 278 295 304 309 308 291 5 6 344 334 357 349 282 231 205 245 262 266 279 283 284 289 268 246 226 216 211 211 213 217 223 225 219 225 235 213 210 222 224 213 204 204 213 221 230 250 274 298 298 284 257 221 202 189
350 331 335 334 315 311 316 318 318 318 322 324 317 313 319 327 334 335 336 327 320 334 343 318 339 356 355 338 320 308 314 299 275 305 327 313 304 306 300 261 177 23 355 334 1 359 303 270 41 281 271 267 258 252 255 260 252 246 241 231 221 219 220 221 224 228 230 234 239 234 228 227 227 230 235 239 242 247 257 271 278 277 272 275 271 239 213 202
338 328 322 319 310 306 309 311 311 313 323 322 309 327 329 322 328 333 326 318 314 323 332 317 326 337 335 329 316 301 307 307 297 309 323 316 310 312 299 273 297 359 345 333 354 346 311 331 6 304 277 256 243 240 242 245 243 241 237 233 231 231 230 229 229 228 231 235 237 238 241 237 229 233 245 250 250 252 257 261 266 274 282 286 280 264 251 256
323 323 318 310 308 310 310 313 314 310 316 325 319 331 329 316 322 328 317 312 317 322 325 320 321 323 314 305 301 293 297 303 295 293 300 300 297 297 294 291 309 328 329 328 335 324 306 314 322 290 260 236 224 224 231 239 248 249 239 229 227 229 230 232 232 231 231 234 236 237 240 241 233 234 242 245 245 246 250 252 257 267 274 276 275 267 258 264
324 324 320 302 295 305 309 311 312 307 313 328 322 318 312 308 316 322 316 309 307 309 316 313 309 309 301 291 294 295 296 296 292 287 287 282 278 278 276 276 285 293 299 308 313 306 299 304 303 277 258 235 202 207 229 242 247 245 235 226 224 226 230 232 232 233 233 234 236 237 239 242 240 239 240 237 234 239 247 252 255 259 264 268 269 264 260 269
Height
1526 1524 1523 1522 1520 1519 1518 1517 1515 1514 1512 1511 1509 1508 1507 1506 1505 1504 1503 1502 1500 1499 1498 1497 1497 1497 1497 1496 1496 1495 1495 1494 1493 1493 1490 1487 1489 1490 1491 1493 1494 1494 1496 1499 1500 1501 1503 1506 1507 1509 1511 1512 1513 1512 1512 1513 1513 1513 1512 1513 1510 1503 1499 1495 1494 1495 1494 1494 1493 1495 1496 1497 1501 1503 1504 1506 1507 1508 1511 1513 1514 1517 1518 1519 1520 1523 1526 1529
1525 1523 1522 1521 1519 1518 1517 1515 1514 1512 1511 1509 1508 1507 1505 1504 1503 1502 1501 1500 1499 1498 1497 1496 1495 1495 1495 1495 1495 1494 1493 1492 1491 1488 1485 1485 1487 1487 1488 1490 1492 1493 1494 1497 1498 1500 1502 1504 1506 1508 1510 1510 1510 1510 1510 1510 1511 1509 1508 1511 1506 1497 1494 1492 1492 1492 1492 1495 1494 1494 1496 1496 1498 1501 1503 1504 1505 1507 1509 1511 1514 1516 1518 1520 1522 1524 1526 1529
1523 1522 1521 1519 1518 1517 1515 1514 1512 1511 1509 1507 1506 1505 1504 1502 1501 1500 1499 1498 1497 1496 1495 1494 1494 1493 1493 1493 1494 1493 1492 1490 1488 1484 1482 1482 1483 1483 1485 1487 1489 1491 1493 1495 1497 1499 1501 1503 1505 1507 1508 1507 1507 1508 1508 1508 1508 1506 1506 1509 1501 1491 1491 1492 1493 1493 1494 1495 1493 1494 1496 1496 1497 1500 1502 1502 1503 1505 1506 1508 1511 1514 1516 1519 1522 1524 1526 1529
1523 1521 1519 1518 1516 1515 1513 1512 1511 1509 1507 1505 1504 1503 1502 1500 1499 1497 1497 1496 1495 1494 1493 1493 1492 1492 1492 1492 1493 1492 1492 1490 1484 1480 1480 1480 1480 1481 1482 1484 1487 1490 1493 1495 1497 1500 1501 1503 1504 1506 1506 1505 1505 1506 1506 1505 1504 1502 1503 1504 1495 1490 1492 1492 1493 1494 1494 1495 1494 1494 1495 1496 1496 1499 1500 1499 1504 1506 1503 1505 1508 1510 1514 1517 1520 1523 1525 1528
1522 1520 1518 1517 1515 1514 1512 1511 1509 1507 1505 1503 1502 1500 1499 1498 1496 1495 1494 1494 1493 1492 1491 1491 1490 1490 1490 1490 1491 1492 1493 1489 1480 1477 1478 1478 1479 1480 1481 1483 1485 1488 1492 1495 1497 1499 1501 1502 1503 1505 1504 1501 1502 1504 1503 1501 1501 1500 1499 1496 1492 1492 1493 1491 1492 1495 1495 1495 1495 1494 1495 1496 1496 1498 1498 1499 1503 1502 1499 1503 1506 1509 1512 1514 1517 1521 1524 1527
1521 1519 1518 1516 1514 1513 1511 1509 1507 1505 1503 1501 1500 1498 1497 1495 1494 1493 1492 1492 1491 1490 1490 1489 1488 1488 1488 1489 1490 1491 1493 1485 1477 1478 1478 1478 1479 1479 1481 1483 1484 1487 1491 1494 1495 1498 1499 1501 1502 1501 1500 1498 1498 1500 1499 1499 1500 1500 1496 1492 1492 1493 1492 1492 1493 1495 1495 1495 1494 1494 1494 1494 1495 1497 1497 1498 1499 1497 1499 1502 1505 1509 1512 1514 1516 1519 1522 1525
1520 1519 1517 1515 1513 1512 1510 1508 1506 1504 1502 1500 1498 1496 1495 1493 1491 1490 1490 1489 1488 1488 1488 1487 1486 1486 1487 1488 1487 1489 1489 1480 1476 1479 1478 1478 1478 1479 1481 1482 1484 1486 1489 1492 1493 1495 1496 1498 1498 1497 1498 1496 1496 1495 1496 1497 1498 1499 1495 1490 1491 1492 1492 1492 1493 1494 1495 1494 1494 1494 1493 1493 1494 1496 1495 1496 1497 1498 1501 1502 1505 1508 1511 1515 1517 1519 1521 1523
1520 1518 1516 1514 1512 1510 1509 1506 1504 1502 1500 1498 1496 1494 1493 1491 1489 1488 1487 1487 1486 1485 1485 1485 1485 1485 1485 1486 1486 1487 1483 1475 1475 1478 1477 1478 1478 1478 1480 1481 1483 1484 1487 1490 1490 1493 1494 1495 1495 1496 1496 1494 1494 1493 1495 1497 1496 1496 1494 1490 1490 1491 1491 1492 1492 1493 1493 1492 1493 1493 1492 1491 1493 1494 1492 1494 1496 1498 1501 1502 1504 1508 1511 1514 1516 1519 1522 1524
1519 1516 1514 1513 1511 1509 1507 1505 1503 1500 1498 1496 1494 1492 1490 1488 1487 1485 1485 1484 1483 1482 1482 1483 1483 1483 1483 1484 1486 1483 1476 1472 1474 1475 1475 1476 1476 1477 1478 1479 1481 1482 1485 1487 1489 1491 1492 1492 1493 1493 1493 1492 1493 1493 1493 1497 1495 1491 1491 1490 1489 1490 1490 1491 1490 1490 1490 1490 1490 1490 1490 1489 1490 1492 1491 1491 1494 1497 1500 1502 1504 1507 1510 1513 1515 1518 1521 1524
1518 1515 1513 1512 1510 1508 1505 1503 1501 1498 1496 1494 1492 1490 1488 1486 1484 1483 1482 1481 1481 1480 1480 1480 1480 1481 1481 1482 1485 1479 1471 1471 1472 1471 1472 1473 1474 1475 1476 1477 1479 1480 1483 1485 1487 1489 1489 1491 1492 1493 1494 1491 1492 1492 1492 1495 1491 1487 1489 1489 1489 1489 1488 1489 1488 1487 1488 1487 1487 1489 1488 1486 1487 1492 1491 1488 1491 1496 1498 1501 1503 1506 1509 1511 1514 1517 1520 1523
1517 1514 1512 1510 1508 1506 1504 1502 1499 1497 1494 1492 1490 1488 1485 1483 1482 1481 1480 1479 1478 1477 1477 1477 1478 1479 1479 1480 1480 1474 1469 1470 1470 1470 1470 1470 1472 1473 1474 1476 1477 1479 1481 1483 1485 1486 1488 1490 1491 1494 1494 1491 1491 1492 1491 1491 1489 1488 1490 1490 1488 1487 1486 1486 1485 1484 1485 1485 1485 1485 1485 1484 1484 1488 1487 1485 1489 1494 1497 1499 1502 1505 1508 1510 1513 1516 1519 1522
1516 1514 1511 1509 1507 1504 1502 1500 1497 1495 1492 1490 1488 1485 1483 1481 1480 1478 1477 1477 1476 1476 1475 1475 1476 1476 1477 1478 1473 1468 1468 1469 1469 1470 1470 1469 1471 1472 1474 1475 1476 1478 1480 1481 1483 1484 1487 1489 1491 1492 1490 1489 1490 1491 1490 1489 1490 1489 1490 1492 1488 1485 1484 1482 1480 1481 1482 1482 1481 1483 1488 1486 1483 1483 1482 1484 1489 1492 1495 1498 1501 1504 1507 1509 1512 1515 1518 1520
1515 1513 1510 1508 1505 1503 1500 1497 1495 1493 1490 1488 1486 1484 1482 1479 1478 1476 1475 1475 1474 1474 1473 1473 1473 1474 1476 1473 1466 1465 1467 1468 1469 1470 1470 1470 1471 1471 1473 1474 1475 1478 1480 1481 1482 1484 1486 1488 1490 1490 1489 1488 1487 1489 1488 1486 1490 1490 1488 1491 1490 1489 1485 1477 1475 1477 1478 1480 1478 1484 1495 1487 1476 1476 1478 1482 1487 1490 1493 1495 1498 1502 1505 1508 1511 1513 1516 1518
1514 1512 1509 1507 1504 1502 1499 1496 1493 1491 1489 1486 1484 1482 1480 1478 1476 1474 1473 1473 1472 1472 1472 1471 1471 1472 1473 1468 1462 1463 1465 1466 1467 1468 1469 1469 1470 1471 1472 1473 1475 1478 1480 1482 1483 1485 1486 1488 1490 1489 1489 1488 1485 1487 1488 1486 1489 1489 1488 1490 1491 1493 1486 1471 1470 1475 1477 1478 1476 1484 1496 1484 1469 1472 1477 1481 1485 1487 1489 1492 1495 1498 1502 1505 1508 1511 1513 1515
1514 1511 1509 1506 1503 1501 1498 1494 1491 1489 1487 1484 1483 1481 1478 1477 1475 1473 1472 1471 1471 1471 1470 1470 1470 1471 1471 1464 1460 1462 1462 1463 1463 1465 1468 1468 1470 1472 1472 1473 1475 1478 1480 1482 1483 1485 1486 1487 1488 1487 1486 1487 1487 1488 1488 1487 1486 1486 1491 1493 1489 1491 1485 1470 1469 1474 1476 1476 1474 1482 1493 1480 1467 1471 1475 1480 1484 1484 1486 1489 1492 1495 1498 1502 1505 1508 1511 1513
1514 1511 1508 1505 1502 1500 1497 1493 1490 1487 1485 1483 1481 1479 1477 1476 1474 1472 1470 1469 1470 1469 1469 1470 1469 1470 1469 1462 1458 1459 1459 1459 1460 1463 1465 1466 1469 1471 1473 1473 1475 1477 1479 1480 1482 1484 1486 1486 1487 1485 1484 1486 1487 1488 1489 1490 1488 1485 1490 1491 1485 1485 1485 1476 1470 1469 1471 1474 1474 1479 1486 1479 1470 1471 1475 1479 1482 1483 1485 1486 1489 1493 1496 1499 1502 1505 1508 1511
1513 1511 1508 1505 1501 1499 1496 1492 1489 1485 1483 1481 1480 1478 1476 1474 1472 1470 1469 1469 1469 1468 1469 1469 1469 1471 1465 1457 1456 1456 1457 1457 1458 1461 1462 1464 1467 1470 1472 1473 1474 1477 1478 1481 1482 1483 1485 1485 1485 1484 1482 1482 1482 1486 1492 1493 1490 1486 1487 1488 1481 1478 1482 1480 1473 1468 1468 1473 1476 1476 1479 1479 1472 1472 1475 1478 1480 1482 1482 1484 1487 1490 1494 1496 1499 1502 1505 1508
1513 1510 1507 1504 1501 1499 1495 1491 1488 1484 1482 1480 1478 1476 1474 1472 1471 1469 1468 1468 1468 1468 1469 1467 1470 1470 1459 1451 1454 1454 1454 1456 1456 1458 1460 1461 1465 1469 1471 1472 1474 1476 1478 1480 1480 1481 1483 1481 1481 1482 1480 1480 1478 1480 1487 1485 1482 1483 1484 1486 1483 1479 1480 1480 1474 1469 1469 1473 1476 1475 1478 1476 1470 1470 1474 1476 1478 1480 1480 1483 1486 1488 1491 1495 1497 1499 1502 1505
1512 1509 1506 1503 1500 1498 1494 1491 1487 1484 1481 1479 1478 1475 1473 1471 1469 1468 1467 1468 1468 1466 1463 1463 1464 1461 1452 1449 1453 1453 1453 1455 1455 1456 1458 1459 1463 1467 1469 1471 1473 1474 1476 1477 1477 1477 1478 1478 1480 1480 1476 1476 1473 1472 1476 1474 1473 1475 1475 1479 1481 1480 1479 1474 1470 1467 1468 1475 1476 1475 1476 1473 1469 1468 1471 1474 1476 1478 1479 1481 1484 1487 1489 1492 1495 1497 1499 1502
1512 1509 1506 1503 1500 1497 1494 1490 1487 1484 1481 1478 1477 1475 1474 1474 1469 1466 1467 1466 1465 1460 1456 1457 1457 1452 1450 1451 1452 1452 1453 1453 1453 1455 1456 1457 1460 1464 1468 1470 1471 1472 1471 1471 1473 1473 1475 1477 1475 1473 1469 1468 1469 1469 1470 1469 1469 1472 1472 1475 1477 1476 1475 1469 1467 1466 1467 1476 1476 1471 1472 1471 1469 1466 1466 1471 1473 1474 1477 1478 1481 1484 1486 1489 1491 1493 1496 1499
1511 1508 1505 1502 1499 1496 1493 1490 1487 1485 1482 1479 1478 1477 1479 1480 1475 1472 1469 1460 1455 1456 1453 1451 1453 1450 1448 1450 1450 1451 1452 1452 1452 1454 1454 1455 1458 1461 1463 1465 1467 1468 1466 1465 1468 1470 1473 1472 1466 1465 1464 1463 1465 1467 1469 1469 1470 1473 1473 1475 1475 1474 1472 1466 1465 1466 1466 1475 1476 1469 1472 1471 1467 1464 1462 1466 1471 1471 1472 1474 1477 1480 1483 1486 1488 1491 1494 1497
1511 1508 1504 1502 1498 1496 1493 1490 1488 1486 1483 1482 1481 1481 1482 1482 1480 1479 1476 1462 1449 1450 1449 1445 1447 1446 1443 1447 1448 1450 1451 1450 1450 1451 1452 1454 1455 1455 1456 1459 1461 1461 1461 1461 1464 1470 1471 1466 1459 1459 1459 1461 1463 1465 1469 1470 1472 1475 1473 1474 1474 1470 1469 1467 1464 1466 1467 1474 1475 1470 1473 1471 1463 1461 1460 1462 1466 1468 1469 1471 1473 1477 1480 1482 1485 1488 1491 1494
1510 1507 1504 1501 1497 1495 1493 1490 1488 1486 1484 1484 1483 1483 1482 1481 1480 1478 1479 1470 1450 1440 1441 1439 1440 1439 1439 1442 1444 1447 1449 1446 1447 1447 1448 1451 1451 1451 1451 1453 1456 1456 1457 1457 1458 1464 1466 1459 1454 1455 1457 1461 1464 1465 1469 1471 1472 1473 1471 1473 1472 1466 1470 1472 1467 1466 1467 1469 1472 1470 1472 1469 1462 1460 1459 1460 1462 1464 1467 1469 1471 1474 1476 1478 1481 1484 1488 1491
1509 1506 1503 1500 1496 1494 1492 1489 1488 1487 1485 1485 1484 1483 1482 1480 1479 1477 1477 1471 1451 1436 1433 1433 1434 1434 1434 1437 1439 1442 1443 1442 1442 1443 1444 1446 1447 1447 1447 1447 1451 1453 1452 1451 1452 1456 1455 1449 1448 1452 1455 1459 1465 1467 1468 1471 1471 1470 1467 1468 1468 1465 1468 1469 1465 1466 1467 1467 1467 1471 1477 1471 1463 1462 1459 1456 1458 1461 1464 1467 1469 1471 1473 1476 1479 1482 1485 1487
1508 1506 1502 1499 1496 1493 1491 1489 1488 1488 1486 1486 1486 1484 1482 1480 1478 1478 1476 1467 1449 1433 1427 1429 1431 1430 1430 1434 1435 1436 1439 1438 1437 1439 1441 1442 1443 1443 1443 1444 1446 1448 1447 1448 1451 1452 1448 1444 1446 1451 1454 1458 1464 1465 1464 1467 1469 1468 1464 1462 1464 1465 1465 1466 1467 1470 1476 1476 1465 1469 1486 1478 1459 1458 1456 1452 1457 1460 1460 1462 1465 1468 1471 1474 1477 1479 1482 1484
1508 1505 1502 1499 1496 1492 1491 1490 1488 1488 1486 1487 1487 1483 1482 1480 1477 1477 1476 1464 1443 1425 1422 1427 1428 1427 1428 1430 1432 1435 1438 1432 1428 1435 1438 1439 1441 1440 1441 1440 1440 1442 1442 1445 1449 1447 1442 1440 1444 1450 1453 1458 1463 1461 1458 1462 1468 1467 1459 1457 1462 1464 1465 1467 1469 1474 1480 1478 1462 1461 1482 1481 1462 1455 1451 1449 1457 1460 1459 1459 1461 1464 1468 1470 1472 1475 1478 1481
1507 1504 1501 1499 1496 1492 1491 1489 1488 1487 1487 1488 1485 1482 1481 1479 1477 1478 1473 1458 1434 1416 1419 1426 1426 1426 1427 1428 1430 1433 1434 1425 1423 1431 1432 1435 1438 1438 1439 1436 1436 1437 1435 1442 1449 1442 1437 1441 1445 1449 1452 1457 1459 1456 1454 1457 1465 1463 1452 1453 1460 1463 1466 1467 1470 1474 1472 1469 1463 1459 1472 1481 1471 1457 1448 1448 1457 1460 1458 1459 1458 1460 1464 1466 1468 1471 1473 1476
1506 1504 1500 1498 1496 1494 1491 1490 1488 1487 1488 1487 1482 1482 1480 1477 1478 1477 1471 1455 1426 1411 1418 1423 1425 1426 1426 1428 1428 1425 1424 1421 1422 1425 1427 1432 1434 1435 1435 1431 1432 1434 1430 1437 1444 1436 1433 1439 1443 1447 1451 1453 1451 1449 1449 1453 1461 1457 1449 1453 1458 1460 1464 1465 1468 1471 1467 1470 1473 1465 1466 1479 1473 1455 1447 1448 1456 1460 1457 1456 1455 1455 1459 1462 1465 1467 1469 1472
1506 1503 1500 1497 1495 1493 1492 1490 1488 1486 1487 1484 1482 1482 1477 1477 1479 1472 1470 1453 1418 1410 1420 1421 1423 1426 1425 1427 1428 1423 1421 1421 1421 1422 1424 1429 1430 1431 1432 1428 1429 1432 1429 1431 1436 1433 1430 1433 1436 1442 1447 1446 1443 1443 1444 1450 1455 1451 1450 1456 1458 1459 1461 1464 1468 1469 1469 1475 1476 1466 1463 1474 1470 1453 1448 1450 1454 1457 1453 1449 1450 1451 1455 1458 1460 1463 1466 1469
1505 1502 1499 1496 1493 1492 1490 1489 1489 1486 1485 1483 1481 1480 1477 1478 1475 1467 1467 1446 1413 1413 1423 1420 1423 1426 1424 1425 1423 1421 1421 1420 1419 1421 1424 1425 1427 1429 1430 1429 1428 1430 1430 1430 1432 1430 1426 1430 1434 1436 1439 1438 1438 1441 1440 1444 1449 1448 1452 1459 1461 1461 1461 1463 1464 1466 1476 1476 1467 1461 1459 1467 1468 1451 1443 1445 1445 1447 1445 1443 1444 1446 1450 1454 1456 1459 1461 1464
1504 1501 1498 1496 1493 1492 1489 1489 1489 1486 1484 1483 1479 1479 1478 1475 1468 1461 1454 1430 1414 1421 1423 1422 1426 1425 1424 1425 1420 1418 1418 1418 1417 1419 1422 1422 1424 1427 1427 1429 1429 1430 1432 1431 1432 1430 1427 1432 1433 1430 1432 1433 1437 1441 1439 1441 1445 1448 1455 1460 1464 1465 1465 1469 1468 1471 1481 1474 1459 1454 1453 1464 1466 1447 1436 1435 1431 1433 1437 1438 1439 1441 1445 1448 1451 1454 1457 1460
1502 1500 1497 1495 1493 1491 1490 1488 1487 1484 1483 1481 1478 1478 1477 1471 1463 1454 1437 1418 1423 1433 1429 1429 1431 1425 1426 1425 1419 1416 1414 1414 1413 1415 1418 1418 1419 1420 1419 1420 1422 1429 1433 1429 1431 1432 1428 1429 1428 1428 1429 1430 1437 1443 1443 1444 1445 1449 1455 1459 1467 1472 1477 1483 1478 1473 1475 1466 1453 1449 1452 1458 1451 1434 1430 1430 1424 1425 1428 1430 1431 1434 1439 1443 1446 1449 1452 1456
1501 1498 1495 1494 1492 1491 1491 1488 1485 1484 1481 1479 1479 1475 1472 1469 1458 1444 1431 1426 1435 1441 1436 1435 1432 1427 1427 1421 1415 1414 1411 1410 1410 1411 1413 1414 1415 1416 1415 1413 1412 1419 1424 1424 1429 1431 1430 1428 1425 1428 1428 1425 1431 1438 1444 1446 1445 1448 1451 1456 1464 1470 1482 1490 1479 1470 1469 1459 1448 1446 1451 1454 1443 1429 1425 1424 1422 1422 1422 1425 1427 1429 1434 1439 1441 1445 1448 1451
1500 1497 1495 1493 1492 1491 1490 1488 1486 1483 1480 1479 1478 1471 1469 1468 1452 1436 1435 1441 1444 1443 1440 1438 1433 1427 1423 1416 1413 1412 1411 1409 1407 1408 1409 1410 1413 1413 1413 1412 1409 1412 1415 1418 1421 1423 1430 1429 1419 1420 1422 1421 1425 1428 1433 1437 1441 1444 1442 1447 1454 1455 1466 1475 1467 1464 1463 1453 1447 1449 1452 1451 1443 1430 1417 1413 1416 1418 1421 1424 1426 1428 1431 1434 1438 1441 1444 1447
1499 1496 1494 1493 1493 1492 1490 1488 1486 1483 1482 1480 1475 1469 1466 1461 1447 1439 1445 1451 1449 1446 1443 1437 1431 1426 1418 1412 1414 1414 1413 1411 1406 1406 1406 1406 1409 1408 1408 1409 1407 1409 1413 1416 1415 1413 1421 1418 1406 1409 1413 1414 1421 1422 1422 1431 1440 1440 1436 1443 1448 1442 1446 1454 1450 1447 1448 1448 1446 1448 1447 1437 1428 1421 1412 1411 1412 1414 1419 1421 1422 1426 1427 1429 1434 1436 1440 1442
1498 1496 1495 1494 1494 1492 1489 1487 1485 1483 1482 1479 1473 1466 1459 1454 1451 1452 1456 1457 1455 1453 1448 1437 1427 1424 1418 1411 1413 1416 1415 1413 1409 1408 1405 1402 1403 1403 1402 1404 1404 1404 1406 1410 1408 1407 1417 1413 1400 1406 1411 1410 1416 1419 1418 1426 1434 1435 1437 1440 1435 1431 1437 1448 1449 1443 1447 1456 1448 1440 1441 1433 1426 1422 1413 1414 1416 1414 1416 1417 1417 1420 1422 1425 1429 1431 1435 1437
1497 1495 1495 1495 1493 1491 1488 1486 1484 1482 1481 1478 1473 1465 1458 1457 1459 1462 1462 1461 1460 1457 1453 1445 1433 1429 1428 1421 1419 1420 1418 1414 1409 1407 1403 1399 1404 1406 1404 1404 1404 1402 1402 1405 1403 1399 1407 1410 1400 1404 1413 1409 1409 1414 1416 1417 1420 1428 1435 1431 1427 1432 1436 1442 1452 1451 1456 1463 1447 1434 1437 1437 1436 1429 1412 1411 1418 1416 1414 1414 1414 1416 1419 1422 1425 1427 1430 1432
1497 1495 1495 1495 1493 1490 1488 1486 1483 1483 1480 1476 1471 1465 1462 1463 1464 1465 1464 1464 1463 1459 1456 1452 1441 1436 1437 1434 1428 1425 1423 1417 1410 1407 1400 1396 1405 1413 1412 1410 1408 1405 1404 1407 1405 1395 1398 1407 1404 1402 1408 1407 1406 1414 1419 1415 1413 1418 1422 1419 1425 1440 1443 1443 1453 1454 1455 1459 1447 1434 1431 1429 1430 1424 1412 1411 1415 1413 1412 1412 1413 1414 1415 1418 1420 1423 1426 1428
1498 1496 1495 1494 1492 1489 1487 1485 1483 1482 1478 1472 1468 1464 1464 1467 1467 1467 1467 1466 1464 1461 1457 1452 1444 1441 1441 1439 1435 1431 1428 1423 1418 1413 1406 1403 1410 1415 1416 1414 1412 1409 1408 1408 1406 1398 1397 1407 1407 1400 1400 1404 1407 1412 1417 1417 1415 1415 1417 1416 1419 1429 1434 1436 1441 1442 1444 1449 1444 1436 1431 1424 1417 1411 1408 1410 1409 1409 1410 1410 1411 1410 1410 1413 1416 1418 1422 1425
1501 1497 1495 1493 1491 1488 1486 1484 1482 1480 1475 1472 1471 1470 1470 1471 1470 1469 1469 1468 1465 1463 1458 1452 1449 1447 1444 1441 1439 1434 1430 1428 1424 1419 1413 1411 1414 1417 1418 1418 1415 1412 1409 1408 1405 1402 1401 1406 1407 1401 1398 1403 1407 1406 1406 1410 1414 1417 1421 1421 1419 1421 1423 1427 1429 1428 1432 1440 1440 1438 1433 1419 1403 1398 1400 1404 1403 1404 1406 1406 1408 1407 1406 1409 1412 1414 1417 1420
1502 1497 1495 1494 1491 1488 1486 1483 1481 1480 1476 1474 1476 1477 1477 1476 1473 1470 1469 1468 1466 1463 1460 1456 1454 1451 1448 1445 1441 1436 1433 1430 1425 1420 1415 1413 1416 1419 1421 1421 1419 1415 1411 1408 1406 1404 1404 1405 1405 1402 1400 1402 1401 1396 1396 1400 1404 1410 1415 1415 1417 1419 1422 1432 1435 1426 1423 1430 1431 1434 1434 1416 1396 1392 1396 1397 1399 1400 1400 1401 1403 1403 1404 1406 1408 1411 1413 1415
1503 1498 1496 1495 1492 1489 1486 1482 1481 1482 1481 1480 1481 1480 1479 1477 1474 1471 1469 1468 1466 1463 1461 1458 1454 1451 1449 1445 1442 1439 1438 1433 1426 1420 1416 1417 1420 1423 1424 1423 1421 1416 1411 1408 1406 1405 1405 1405 1403 1401 1398 1397 1394 1389 1392 1394 1395 1401 1407 1407 1410 1413 1416 1428 1435 1426 1422 1425 1422 1425 1432 1417 1396 1392 1394 1394 1395 1395 1395 1397 1398 1399 1402 1404 1406 1408 1410 1413
1505 1502 1499 1497 1494 1491 1487 1484 1484 1485 1485 1485 1484 1481 1479 1477 1474 1472 1470 1470 1468 1465 1464 1460 1455 1452 1449 1446 1445 1444 1440 1436 1429 1421 1418 1421 1424 1426 1426 1425 1422 1416 1411 1409 1407 1408 1409 1406 1406 1405 1396 1391 1389 1387 1389 1391 1393 1399 1400 1399 1402 1406 1407 1413 1417 1415 1419 1424 1421 1427 1434 1419 1398 1393 1394 1393 1394 1393 1393 1395 1396 1398 1399 1401 1404 1406 1409 1412
1506 1503 1500 1498 1496 1492 1490 1490 1490 1488 1487 1487 1484 1481 1479 1477 1476 1475 1473 1471 1470 1469 1467 1463 1460 1458 1454 1450 1449 1446 1441 1438 1431 1424 1423 1424 1426 1428 1427 1426 1424 1419 1417 1418 1415 1413 1412 1406 1407 1413 1410 1406 1404 1401 1398 1395 1392 1394 1394 1393 1396 1398 1402 1408 1408 1410 1418 1418 1415 1425 1431 1414 1398 1395 1395 1394 1394 1393 1392 1393 1395 1397 1398 1401 1403 1406 1409 1411
1506 1502 1500 1499 1497 1494 1493 1495 1495 1492 1491 1490 1486 1482 1480 1477 1476 1477 1474 1472 1472 1471 1468 1465 1465 1464 1459 1454 1450 1445 1441 1441 1435 1428 1427 1427 1427 1429 1429 1427 1426 1422 1421 1422 1419 1415 1412 1405 1403 1409 1412 1412 1412 1408 1401 1394 1390 1390 1389 1389 1392 1395 1399 1406 1409 1415 1422 1419 1412 1418 1419 1407 1399 1399 1397 1395 1396 1395 1393 1392 1394 1396 1399 1401 1403 1406 1408 1409
1508 1504 1502 1500 1498 1496 1496 1496 1496 1495 1494 1492 1488 1483 1481 1478 1476 1477 1475 1473 1473 1471 1469 1468 1467 1466 1464 1459 1454 1447 1441 1440 1438 1433 1432 1432 1430 1430 1430 1428 1427 1426 1424 1423 1419 1414 1412 1407 1403 1403 1403 1402 1403 1401 1394 1389 1389 1390 1391 1391 1391 1391 1394 1401 1407 1411 1415 1416 1414 1411 1410 1407 1405 1403 1400 1397 1396 1396 1395 1393 1393 1395 1398 1401 1403 1405 1406 1407
1510 1507 1507 1505 1501 1497 1495 1495 1495 1495 1494 1493 1490 1486 1484 1480 1477 1476 1475 1474 1474 1472 1470 1470 1470 1470 1470 1468 1462 1453 1446 1442 1440 1437 1436 1436 1434 1432 1431 1428 1427 1427 1425 1422 1419 1415 1414 1410 1405 1405 1405 1401 1401 1400 1396 1393 1391 1389 1390 1391 1390 1391 1392 1396 1401 1401 1403 1413 1416 1407 1405 1410 1407 1401 1400 1399 1396 1396 1395 1393 1392 1394 1398 1400 1402 1403 1404 1405
1511 1510 1510 1510 1506 1500 1497 1496 1495 1495 1493 1492 1490 1487 1485 1482 1479 1478 1477 1475 1475 1473 1471 1470 1471 1472 1473 1474 1468 1460 1453 1448 1443 1441 1441 1441 1439 1435 1430 1427 1427 1428 1426 1423 1420 1419 1418 1412 1405 1406 1407 1402 1401 1400 1397 1397 1397 1393 1391 1390 1388 1390 1391 1393 1396 1395 1396 1406 1410 1403 1404 1409 1405 1398 1397 1396 1394 1395 1393 1392 1393 1395 1397 1399 1401 1402 1403 1403
1513 1512 1510 1510 1508 1503 1500 1498 1496 1494 1492 1490 1489 1487 1485 1483 1481 1480 1479 1478 1475 1474 1473 1473 1472 1472 1473 1474 1472 1466 1461 1457 1451 1450 1450 1448 1443 1438 1433 1429 1427 1428 1428 1425 1422 1423 1421 1413 1410 1411 1410 1404 1402 1400 1398 1399 1399 1398 1396 1392 1389 1389 1388 1390 1392 1392 1392 1398 1399 1399 1403 1405 1400 1396 1394 1392 1392 1392 1392 1393 1393 1393 1396 1398 1400 1401 1402 1402
1514 1513 1511 1510 1507 1502 1499 1497 1495 1493 1490 1489 1488 1486 1485 1484 1483 1481 1480 1480 1478 1475 1475 1475 1473 1472 1472 1473 1473 1469 1465 1462 1461 1459 1458 1454 1448 1442 1438 1434 1430 1432 1433 1428 1425 1425 1423 1418 1415 1414 1413 1407 1401 1399 1399 1399 1400 1400 1398 1395 1393 1392 1390 1389 1390 1389 1392 1395 1395 1397 1403 1402 1396 1392 1391 1391 1391 1392 1393 1394 1393 1392 1394 1396 1397 1399 1400 1401
1514 1513 1512 1511 1506 1501 1498 1495 1494 1492 1489 1487 1487 1486 1486 1484 1483 1482 1480 1478 1478 1477 1476 1476 1474 1472 1471 1471 1472 1470 1465 1464 1463 1460 1459 1458 1454 1448 1445 1441 1439 1440 1438 1433 1431 1428 1425 1423 1417 1415 1417 1410 1400 1400 1401 1398 1399 1401 1398 1395 1394 1393 1392 1391 1389 1388 1390 1394 1396 1398 1402 1400 1393 1389 1390 1391 1391 1392 1393 1393 1394 1394 1393 1394 1395 1396 1398 1399
1513 1512 1511 1511 1507 1501 1497 1494 1492 1490 1488 1487 1487 1487 1486 1484 1482 1483 1481 1477 1477 1477 1476 1475 1474 1472 1469 1468 1467 1467 1465 1463 1462 1460 1459 1459 1455 1452 1449 1446 1444 1444 1441 1438 1436 1431 1428 1427 1420 1418 1420 1410 1399 1400 1400 1402 1409 1405 1393 1389 1391 1390 1391 1391 1388 1387 1386 1389 1394 1396 1395 1392 1388 1388 1390 1391 1390 1391 1391 1391 1393 1394 1393 1393 1393 1393 1395 1396